WetterOnline ( http://www.wetteronline.de )

Wetter aktuell Darß/Zingst

Aktuelles Wetter: Barth (7m)

6-stündlich | Neueste Meldungen
Ortszeit Temperatur Wetter
Fr, 28.07. 2:00 12.3° C Nebel
Do, 27.07. 20:00 18.6° C wolkig
Do, 27.07. 14:00 20.4° C bewölkt
Do, 27.07. 8:00 15.9° C leicht bewölkt
Ortszeit Temperatur Wetter
Fr, 28.07. 4:00 11.1° C Nebel
Fr, 28.07. 3:30 9.9° C Nebel
Fr, 28.07. 3:00 10.5° C Nebel
Fr, 28.07. 2:30 10.5° C Nebel
Fr, 28.07. 2:00 12.3° C Nebel
Fr, 28.07. 1:30 12.4° C Nebel
Ortszeit Relative Feuchte Sichtweite
Fr, 28.07. 2:00 99% 0.3 km
Do, 27.07. 20:00 75% 21 km
Do, 27.07. 14:00 68% 23 km
Do, 27.07. 8:00 88% 14 km
Ortszeit Relative Feuchte Sichtweite
Fr, 28.07. 4:00 99% 100 m
Fr, 28.07. 3:30 98% 100 m
Fr, 28.07. 3:00 99% 0.3 km
Fr, 28.07. 2:30 99% 100 m
Fr, 28.07. 2:00 99% 0.3 km
Fr, 28.07. 1:30 98% 0.3 km
Ortszeit Niederschlagsmenge Niederschlagsart
Fr, 28.07. 2:00 0.0 l/m2 in 6 Std. -
Do, 27.07. 20:00 0.4 l/m2 in 12 Std. Regen
Do, 27.07. 14:00 0.1 l/m2 in 6 Std. Regen
Do, 27.07. 8:00 0.0 l/m2 in 12 Std. -
Ortszeit Niederschlagsmenge Niederschlagsart
Fr, 28.07. 4:00 0.0 l/m2 in 1 Std. -
Fr, 28.07. 3:30 keine Meldung -
Fr, 28.07. 3:00 0.0 l/m2 in 1 Std. -
Fr, 28.07. 2:30 keine Meldung -
Fr, 28.07. 2:00 0.0 l/m2 in 1 Std. -
Fr, 28.07. 1:30 keine Meldung -
Ortszeit Stärke Spitze Richtung
km/h Bft. km/h Grad Sektor
Fr, 28.07. 2:00 2 1 19 250° W
Do, 27.07. 20:00 9 2 33 280° W
Do, 27.07. 14:00 17 3 24 200° S
Do, 27.07. 8:00 7 2 18 230° SW
Ortszeit Stärke Spitze Richtung
km/h Bft. km/h Grad Sektor
Fr, 28.07. 4:00 0 0 14 - -
Fr, 28.07. 3:30 6 1 13 200° S
Fr, 28.07. 3:00 4 1 4 170° S
Fr, 28.07. 2:30 0 0 4 - -
Fr, 28.07. 2:00 2 1 6 250° W
Fr, 28.07. 1:30 4 1 4 260° W
Ortszeit Untergrenze Bedeckung Gattung
total tief tief mittel hoch
Fr, 28.07. 2:00 2700 m 2/8 2/8 - - -
Do, 27.07. 20:00 2100 m 8/8 2/8 - - -
Do, 27.07. 14:00 1350 m 7/8 7/8 - - -
Do, 27.07. 8:00 7500 m 4/8 0/8 - - -
Ortszeit Bedeckungsgrad in Achtel und Wolkenuntergrenze
Fr, 28.07. 4:00 3(2700m) 8(5400m)
Fr, 28.07. 3:30 4(5400m)
Fr, 28.07. 3:00 1(2400m)
Fr, 28.07. 2:30 3(2400m)
Fr, 28.07. 2:00 2(2700m)
Fr, 28.07. 1:30 8(4500m) 8(5700m)
Ortszeit Luftdruck NN (hPa) Tendenz (hPa in 3 Std.)
Fr, 28.07. 2:00 1006 - 0,2
Do, 27.07. 20:00 1005 + 0,4
Do, 27.07. 14:00 1005 - 0,2
Do, 27.07. 8:00 1005 + 0,1
Ortszeit Luftdruck NN (hPa) Tendenz (hPa in 3 Std.)
Fr, 28.07. 4:00 1006 + 0,2
Fr, 28.07. 3:30 1006 + 0,2
Fr, 28.07. 3:00 1006 + 0,1
Fr, 28.07. 2:30 1006 - 0,1
Fr, 28.07. 2:00 1006 - 0,2
Fr, 28.07. 1:30 1006 + 0,2
Ortszeit Schneehöhe (cm)
Fr, 28.07. 2:00 -
Do, 27.07. 20:00 -
Do, 27.07. 14:00 -
Do, 27.07. 8:00 -
Ortszeit Schneehöhe (cm)
Fr, 28.07. 4:00 -
Fr, 28.07. 3:30 -
Fr, 28.07. 3:00 -
Fr, 28.07. 2:30 -
Fr, 28.07. 2:00 -
Fr, 28.07. 1:30 -
Link zu dieser Seite / Seite empfehlen

Das Wetter in ...